SCP
0 0 0 0 0 0 0 0 0 0 0 0 0 0 1 1 1 2 3 5 4 3 3 4 4 3 3 4 6 7 7 6 6 5 5 5 4 4 4 6 7 6 5 5
0 0 0 0 0 0 0 0 0 0 0 0 0 0 1 1 2 2 4 4 4 3 3 4 4 3 3 4 6 7 7 7 7 7 7 6 5 5 5 6 7 7 6 6
0 0 0 0 0 0 0 0 0 0 0 0 0 0 1 2 2 2 3 4 4 4 3 4 4 4 4 5 5 7 8 8 9 9 9 8 7 6 6 7 10 10 9 8
0 0 0 0 0 0 0 0 0 0 0 0 0 0 1 2 2 2 3 4 4 4 4 4 4 4 5 6 6 7 9 11 11 11 10 10 9 7 7 9 12 12 11 10
0 0 0 0 0 0 0 0 0 0 0 0 0 0 1 1 2 2 2 3 4 5 4 4 4 4 5 6 7 9 12 14 14 12 11 10 8 8 8 11 12 11 10 9
0 0 0 0 0 0 0 0 0 0 0 0 0 0 1 1 2 2 2 3 4 5 5 6 6 6 8 10 11 13 17 18 15 11 9 8 7 8 10 11 10 9 8 9
0 0 0 0 0 0 0 0 0 0 0 0 0 0 1 2 2 2 2 3 4 5 6 6 7 9 12 14 14 16 19 18 13 10 9 8 7 8 10 10 9 9 9 9
0 0 0 0 0 0 0 0 0 0 0 0 0 1 2 3 3 2 3 3 3 5 6 7 8 9 11 12 12 13 15 14 11 10 10 9 8 8 9 10 10 10 9 7
0 0 0 0 0 0 0 0 0 0 0 0 0 1 2 2 2 2 3 3 3 4 5 6 7 7 7 8 9 9 10 10 9 10 11 9 8 8 9 10 11 10 8 7
0 0 0 0 0 0 0 0 0 0 0 0 0 1 2 2 2 2 3 3 4 4 4 5 6 7 7 7 8 9 9 10 10 9 10 9 8 8 9 9 9 8 8 7
0 0 0 0 0 0 0 0 0 0 0 0 0 1 2 2 2 2 3 4 4 4 3 4 6 8 8 8 8 8 9 10 10 10 10 9 8 8 8 8 8 8 8 8
0 0 0 0 0 0 0 0 0 0 0 0 0 1 2 2 2 3 3 4 4 4 4 5 7 9 10 9 9 9 9 10 11 11 11 10 9 9 8 8 8 8 9 9
0 0 0 0 0 0 0 0 0 0 0 0 0 1 2 2 2 3 4 4 5 5 6 7 10 11 12 11 11 10 10 10 10 10 10 9 9 9 9 8 8 8 9 10
0 0 0 0 0 0 0 0 0 0 0 0 1 1 2 3 3 4 5 5 6 6 7 9 12 15 15 14 14 12 11 10 10 10 9 9 9 9 8 8 8 8 9 10
0 0 0 0 0 0 0 0 0 0 0 0 1 1 2 3 3 5 6 6 6 7 8 10 13 17 19 18 17 15 12 10 10 11 11 9 8 8 7 7 8 9 10 10
0 0 0 0 0 0 0 0 0 0 0 0 1 2 2 3 4 6 7 7 6 7 8 10 13 17 21 21 19 16 13 12 12 12 11 9 8 8 7 7 8 10 11 12
0 1 1 0 0 0 0 0 0 0 0 1 2 2 3 3 4 6 7 6 5 6 8 10 12 15 20 23 20 15 12 11 11 11 10 9 9 9 8 8 9 11 12 13
1 1 1 0 0 0 0 0 0 0 0 1 2 3 3 4 4 5 6 6 5 5 6 8 10 13 18 20 17 13 10 10 10 10 9 9 9 9 10 10 11 12 14 14
1 1 1 1 0 0 0 1 1 1 1 2 3 3 4 5 5 5 5 5 5 5 6 8 10 12 15 15 13 11 10 10 10 10 10 10 10 9 10 11 13 14 15 15
1 1 1 1 1 0 1 1 1 1 1 2 3 4 5 5 5 5 5 6 6 6 7 8 10 11 12 11 10 10 11 11 11 10 10 10 10 10 11 13 15 16 16 15
1 1 1 1 1 1 1 1 1 2 2 3 3 4 5 5 5 6 6 8 8 8 8 8 9 10 11 11 11 11 11 10 10 9 9 10 11 11 12 14 17 18 17 15
1 1 1 1 1 1 2 2 3 3 3 3 3 4 5 5 5 6 8 10 11 10 9 9 9 11 12 13 13 12 11 11 10 9 9 10 11 11 12 14 17 19 17 16
2 3 4 5 5 4 4 4 5 4 3 3 3 4 4 4 5 6 9 12 12 11 11 11 11 13 16 17 15 13 12 12 12 12 11 11 11 11 12 13 16 17 17 15
4 6 8 9 9 7 6 5 5 4 3 3 3 4 4 5 6 7 10 12 13 13 13 13 13 15 19 20 18 15 14 14 14 13 13 12 11 11 12 13 14 16 16 15
6 6 8 10 11 9 6 5 4 3 3 3 4 4 5 6 7 8 11 14 16 15 16 15 14 15 19 20 18 16 15 15 15 14 12 11 10 11 12 13 13 13 13 13
6 6 6 9 12 10 6 4 3 3 3 3 4 5 6 8 8 9 12 16 17 17 17 17 15 16 18 19 17 16 16 16 15 13 11 9 9 12 13 13 12 11 11 10
Wind_Speed
12 11 11 11 11 9 6 6 5 4 5 5 5 8 11 12 11 12 12 12 12 11 12 11 10 10 10 8 7 6 5 4 2 2 2 2 2 2 2 3 3 2 1 1
12 13 14 12 10 9 8 9 5 5 5 5 4 6 9 12 11 10 11 12 12 13 13 12 11 10 10 8 7 6 5 5 3 3 2 1 1 1 2 2 3 2 1 1
14 11 10 11 11 10 9 8 4 4 4 6 5 6 7 10 11 11 11 12 13 14 14 13 12 10 10 10 8 7 6 5 4 4 2 2 1 1 1 2 2 2 1 1
13 12 9 11 11 10 8 8 5 6 6 6 6 5 6 8 9 11 11 10 11 12 14 13 13 11 10 10 9 7 6 5 4 4 2 3 2 1 1 1 2 1 1 0
12 12 11 11 10 8 7 6 6 8 8 9 8 6 6 10 9 10 11 11 10 11 13 13 13 11 10 10 10 9 7 6 5 4 3 2 1 1 1 1 2 1 1 1
14 11 10 10 8 8 8 8 8 9 8 10 9 8 5 6 8 8 11 11 10 10 11 12 11 10 10 10 10 10 8 6 5 4 3 3 2 1 0 1 1 1 1 1
15 14 11 10 11 11 11 9 6 7 8 9 8 7 3 6 7 7 8 8 10 11 10 11 11 11 9 9 9 9 9 7 6 5 4 3 2 2 1 1 1 1 0 0
14 14 15 13 13 11 12 12 8 7 7 5 7 6 4 8 7 7 8 9 8 9 10 11 12 11 10 9 9 9 9 7 7 6 5 3 3 2 1 1 1 1 1 0
10 11 11 11 11 12 12 11 12 11 12 10 7 6 7 8 8 7 8 9 9 8 9 9 10 11 11 10 9 9 9 7 7 7 6 5 4 3 2 2 1 1 1 1
9 8 10 10 9 12 13 11 8 9 8 9 7 6 5 9 10 8 7 8 8 8 8 9 9 10 10 10 9 8 8 7 6 7 6 6 5 3 2 1 1 0 1 1
12 9 11 11 13 14 14 14 10 7 8 9 6 2 4 9 7 7 6 7 8 8 7 7 8 8 8 9 10 9 8 8 6 6 5 4 5 4 3 2 1 1 1 0
10 9 10 13 12 12 12 12 11 8 7 8 8 3 5 8 7 6 5 6 7 6 6 7 7 8 8 7 8 9 8 8 7 6 5 5 4 4 3 3 1 1 0 0
5 7 9 11 11 12 12 12 13 11 9 9 9 4 5 6 5 5 7 7 6 6 6 6 6 7 7 7 6 7 7 7 7 6 6 5 4 4 3 3 2 2 1 0
6 8 11 12 9 8 12 14 14 13 9 10 10 6 5 4 4 5 5 6 7 6 6 6 5 5 6 6 5 5 5 6 6 6 6 5 4 3 3 3 3 2 2 1
7 11 13 15 15 12 12 14 14 14 13 12 11 10 5 4 3 4 5 5 6 6 6 6 6 5 6 6 5 4 4 4 5 6 5 5 4 3 3 3 3 2 1 2
7 9 12 14 16 15 15 14 14 15 14 14 12 9 4 3 3 3 3 4 5 6 6 6 6 6 6 6 6 5 4 4 5 6 6 5 5 4 4 3 3 3 2 2
8 8 10 12 14 15 17 14 14 14 14 13 11 7 4 2 3 4 2 3 4 5 6 7 6 6 6 6 5 5 5 5 5 6 6 6 5 5 4 4 4 3 3 2
8 7 7 11 12 17 12 11 13 13 12 10 8 6 4 2 3 4 4 4 3 4 4 5 6 6 6 6 5 5 5 5 5 5 5 5 5 5 4 4 3 3 3 2
10 9 9 10 13 15 13 11 11 10 9 7 6 4 2 2 2 3 4 4 4 4 4 3 4 6 6 6 6 5 5 5 5 5 5 5 5 5 4 4 3 3 3 3
12 9 10 11 13 14 10 8 7 7 8 4 3 3 3 4 4 2 4 4 4 4 4 3 4 5 5 5 5 6 6 6 5 5 5 5 5 5 5 4 4 3 3 3
13 12 13 14 13 11 8 6 6 10 4 2 3 2 2 3 1 2 3 4 4 5 4 4 4 4 4 5 5 5 6 5 5 4 4 4 4 5 5 4 3 3 3 2
11 12 12 11 13 10 5 5 3 2 5 4 3 2 1 1 2 2 2 4 4 4 4 4 4 4 4 4 5 5 5 4 4 5 5 4 4 4 4 4 3 3 4 4
8 7 6 6 6 2 3 3 3 3 3 3 3 3 1 1 2 2 3 3 3 4 4 3 4 4 4 4 4 5 4 4 4 4 5 4 4 3 4 4 4 4 4 4
6 5 5 4 4 3 3 3 3 3 3 3 3 2 3 2 1 1 2 4 3 3 3 3 4 4 4 4 3 3 4 4 4 4 4 4 4 4 4 3 3 4 3 3
6 5 6 6 5 4 4 4 4 3 3 3 4 3 3 2 2 1 2 3 3 3 2 2 3 4 4 3 3 4 4 4 5 4 4 4 4 4 3 3 1 2 1 1
7 7 7 5 3 3 4 4 5 4 4 3 3 4 3 2 1 1 1 2 3 3 3 3 3 4 4 4 3 3 4 4 4 4 4 4 4 4 4 4 3 4 3 4
Wind_Direction
221 229 235 230 236 248 255 248 208 179 168 200 185 171 168 168 172 165 168 163 162 161 158 155 157 153 147 146 148 148 149 146 156 152 170 179 157 158 143 141 139 163 192 192
227 225 234 243 245 251 249 251 234 183 183 212 206 196 174 172 178 173 168 168 166 164 160 158 161 161 157 154 154 153 159 160 169 161 172 185 152 169 145 121 134 158 162 202
231 234 230 237 242 244 251 257 250 243 229 245 227 223 195 176 176 172 173 174 171 170 165 164 168 169 165 162 163 168 162 160 169 169 169 172 163 183 137 138 153 169 176 197
235 236 239 239 239 240 249 261 254 249 251 255 237 229 208 182 186 176 171 173 173 168 166 167 170 172 170 166 165 158 157 159 164 167 171 188 175 167 154 152 133 154 168 231
235 229 232 239 243 245 255 260 257 255 254 264 250 250 201 179 184 180 173 175 172 165 165 167 170 170 171 169 164 160 158 158 158 167 165 179 190 180 149 124 125 159 176 224
246 234 230 239 245 248 255 254 254 253 254 253 252 256 215 189 176 178 169 171 167 163 162 161 161 162 170 169 164 160 156 159 162 168 164 176 201 195 130 135 140 206 182 178
231 230 221 224 235 233 234 238 240 240 238 245 241 244 167 149 156 164 154 161 167 164 159 157 157 160 165 165 162 154 154 163 167 170 177 184 196 197 188 218 189 235 234 187
226 220 211 212 221 228 227 234 239 250 250 246 235 236 153 145 135 137 145 153 152 154 157 159 160 162 165 164 160 155 155 164 170 175 175 185 192 201 190 207 244 249 282 247
236 227 202 207 220 233 233 237 248 257 266 264 241 190 161 145 141 143 148 147 149 151 154 159 161 163 165 163 161 160 159 164 172 178 176 179 183 194 208 196 218 252 303 300
261 249 220 202 216 230 246 250 252 253 266 267 265 234 183 160 159 159 155 153 151 154 159 159 160 160 165 164 160 160 160 163 170 177 185 181 180 182 185 185 175 249 293 317
247 247 234 213 214 225 221 233 243 262 269 267 265 258 139 142 151 161 165 149 149 155 160 157 155 154 155 162 160 160 162 162 169 177 177 177 174 176 172 171 157 179 289 314
237 247 242 227 221 231 238 233 234 238 252 265 271 239 131 135 154 161 154 143 138 146 154 152 151 151 154 155 159 162 165 167 168 169 170 174 165 167 170 167 167 162 182 321
256 257 250 230 216 215 235 238 239 243 246 253 258 226 145 143 157 147 138 138 137 140 143 135 140 148 151 153 152 157 165 165 164 167 165 159 166 166 169 164 166 167 164 151
264 251 255 248 236 223 224 234 234 237 241 245 248 235 194 168 153 130 131 145 152 148 141 137 137 138 144 146 148 149 154 162 161 159 157 157 165 165 163 157 160 165 160 140
248 248 254 262 263 257 237 235 236 239 245 251 253 249 215 159 156 142 150 159 163 159 153 146 146 145 146 143 140 145 150 155 159 153 155 151 161 158 153 153 150 149 152 151
236 260 261 259 259 257 256 244 239 243 246 249 251 255 246 179 134 128 155 167 169 166 165 160 156 156 154 151 153 154 152 158 155 160 160 154 160 163 162 154 152 151 150 143
238 250 257 256 256 257 249 246 246 244 245 245 245 247 252 187 135 136 157 168 172 169 165 163 165 162 158 160 158 161 162 164 162 163 160 160 164 165 169 169 160 162 158 146
245 254 257 255 253 248 250 253 254 250 252 254 245 237 224 194 157 151 159 144 141 143 149 156 161 159 160 159 158 160 164 160 159 161 159 159 161 164 165 167 169 167 157 156
231 237 246 249 247 248 252 249 254 255 258 266 251 240 218 199 175 153 141 138 132 127 130 146 158 157 155 157 159 164 165 161 166 167 164 163 162 163 163 168 174 169 162 159
218 224 240 243 246 247 250 255 259 255 246 267 272 241 236 238 232 175 118 118 121 119 125 130 138 141 144 151 158 169 169 167 172 169 163 160 161 164 169 173 175 173 173 172
213 216 231 242 246 250 279 282 251 243 256 341 313 302 256 252 271 109 112 113 118 123 128 131 132 134 143 152 161 172 168 172 173 161 156 160 164 167 165 166 172 170 176 169
222 220 225 237 243 246 287 282 268 342 7 354 332 310 335 85 135 152 135 125 124 128 136 140 132 134 140 158 165 169 170 171 166 158 157 160 168 180 169 166 170 175 177 183
233 240 236 233 241 302 340 354 3 359 360 345 336 327 307 218 208 175 138 126 137 138 144 145 138 140 145 152 160 168 163 160 163 159 161 167 173 178 166 170 178 181 185 197
237 255 253 251 248 281 317 316 328 341 342 333 331 308 300 282 255 169 128 132 135 134 133 140 147 152 152 151 153 161 154 155 160 164 167 173 174 177 166 172 182 188 190 197
287 268 258 257 258 282 286 330 324 323 315 308 312 299 286 288 282 209 138 137 139 141 145 150 153 154 150 148 154 158 155 157 161 170 178 185 186 176 166 167 156 180 154 181
271 273 264 272 299 275 282 302 295 297 295 287 287 292 297 302 307 293 145 147 154 162 158 153 152 151 149 150 155 158 158 164 171 184 193 197 189 173 172 168 153 67 86 111